Hovedside
METAR-TAF:

METAR-TAF

Lufthavner :

Skövde, Sverige

breddegrad: 58-27N, lengdegrad: 013-58E, høyde over havet: 98 m

Gjeldene værobservasjon

Denne rapporten ble laget for 26 minutter siden, klokken 04:20 UTC
Vind 8 kt fra Sør-sørvest
Temperatur 0°C
Luftfuktighet 93%
Trykk 990 hPa
Sikt: 5000 m
lett regn, snø

METAR: ESGR 250420Z AUTO 21008KT 5000 -RASN FEW011/// BKN016/// OVC022/// 00/M01 Q0990

Tid: 06:46 (04:46 UTC)


TAF: fraværende

Værobservasjoner og værvarsel for over 4000 flyplasser (METAR- og TAF-rapporter).

Tilgjengelige stasjoner er representert av de røde og gule prikkene på kartet.

Hold musepekeren over prikken for å se navnet på stasjonen.

Klikk så for å se værobservasjoner og -varsler.

For å forandre kartet kan du klikke på den grønne knappen med svart kryss for å zoome inn, på den grønne knappen med strek for å zoome ut, eller på de grønne pilene for å se tilstøtende kart.


METAR-TAF: